Location: Coopersdale
(40.3556°N, 78.9372°W)
Time: 10:32:32
(UTC+00:00)

Vanguard 1 - Pass Details

Date: 24 January 2021
Orbit: 649 x 3834 km, 34.2° (Epoch: 07 March)

Event Time Altitude Azimuth Distance (km) Brightness Sun altitude
Rises 01:41:14 0° 285° (WNW) 7,937 15.6 -37.5°
Reaches altitude 10° 01:48:21 10° 275° (W) 6,699 15.0 -38.8°
Maximum altitude 02:03:11 25° 230° (SW) 4,587 13.6 -41.6°
Drops below altitude 10° 02:13:53 10° 181° (S) 4,698 13.4 -43.6°
Enters shadow 02:14:19 - 180° (S) 4,746 13.4 -43.7°
